Simultaneous Nadir Overpasses (SNOs) Predictions

Prediction of SNOs between METOP-B and NOAA-19 Satellite Orbit:

Table of predicted SNOs for the next 14.0 days since TLE Epoch: 9/18/2020
Index Date (METOP-B) Time (METOP-B) Lat,Lon (METOP-B) SZA (METOP-B ) Date (NOAA-19) Time (NOAA-19) Lat,Lon (NOAA-19) SZA (NOAA-19 ) Distance(km) Time Diff (sec)
1 09/29/2020 03:23:25 -80.21, -26.69 96.24 09/29/2020 03:22:15 -80.22, -26.84 96.27 2.92 70
2 09/29/2020 04:14:05 80.21, 140.66 83.78 09/29/2020 04:13:19 80.20, 140.72 83.76 2.06 46
3 09/29/2020 05:04:47 -80.20, -52.17 96.24 09/29/2020 05:04:15 -80.21, -52.17 96.24 0.94 32
4 09/29/2020 05:55:27 80.20, 115.17 83.79 09/29/2020 05:55:20 80.21, 115.06 83.78 2.40 7
5 09/29/2020 06:46:09 -80.19, -77.66 96.23 09/29/2020 06:46:15 -80.20, -77.50 96.21 3.14 6
6 09/29/2020 07:36:49 80.19, 89.69 83.79 09/29/2020 07:37:20 80.20, 89.72 83.81 1.28 31
7 09/29/2020 08:27:30 -80.20,-102.83 96.18 09/29/2020 08:28:15 -80.19,-102.84 96.18 1.65 45
